WMT7M LROP-EDDK

Flight info

Callsign WMT7M
Flight time N/A
Altitude 36000
Route SOKRU DCT OXDOC DCT BUDOP DCT TOVKA DCT DITIS DCT RAPET T843 VELIS/N0422F320 DCT MASEK T841 ERNEP ERNEP1C
Aircraft A320/M-SDE3FGHIRWY/LB1

Departure

Time 2026-05-04 18:18
Airport Bucharest Henri Coandă International Airport (LROP)

Arrival

Time N/A
Airport Cologne Bonn Airport (EDDK)
Time Latitude Longitude Altitude Speed Heading
2026-05-04 17:55 44.57014 26.08078 317 ft 0 kts 354°
2026-05-04 18:07 44.57003 26.08079 317 ft 2 kts 354°
2026-05-04 18:07 44.56985 26.08082 314 ft 2 kts 354°
2026-05-04 18:08 44.56968 26.08084 316 ft 2 kts 354°
2026-05-04 18:08 44.56952 26.08088 316 ft 2 kts 13°
2026-05-04 18:08 44.56939 26.08076 316 ft 2 kts 85°
2026-05-04 18:08 44.56938 26.08072 316 ft 0 kts 98°
2026-05-04 18:10 44.56938 26.08074 316 ft 1 kts 97°
2026-05-04 18:10 44.56937 26.08086 317 ft 2 kts 92°
2026-05-04 18:10 44.56937 26.08109 317 ft 3 kts 89°
2026-05-04 18:10 44.56938 26.08146 317 ft 5 kts 89°
2026-05-04 18:11 44.56941 26.08205 317 ft 8 kts 81°
2026-05-04 18:11 44.56950 26.08294 314 ft 11 kts 82°
2026-05-04 18:11 44.56924 26.08392 316 ft 12 kts 136°
2026-05-04 18:11 44.56894 26.08488 317 ft 12 kts 93°
2026-05-04 18:12 44.56926 26.08541 318 ft 7 kts 352°
2026-05-04 18:12 44.56985 26.08538 317 ft 10 kts 358°
2026-05-04 18:12 44.57065 26.08531 314 ft 13 kts 350°
2026-05-04 18:12 44.57160 26.08514 316 ft 14 kts 354°
2026-05-04 18:13 44.57260 26.08499 317 ft 14 kts 353°
2026-05-04 18:13 44.57359 26.08484 319 ft 14 kts 354°
2026-05-04 18:13 44.57548 26.08456 326 ft 0 kts 354°
2026-05-04 18:15 44.57563 26.08454 323 ft 9 kts 354°
2026-05-04 18:15 44.57676 26.08636 326 ft 0 kts 85°
2026-05-04 18:17 44.57676 26.08637 326 ft 1 kts 85°
2026-05-04 18:17 44.57689 26.08773 322 ft 32 kts 80°
2026-05-04 18:17 44.57825 26.10537 319 ft 137 kts 84°
2026-05-04 18:18 44.57931 26.12019 408 ft 159 kts 84°
2026-05-04 18:18 44.58081 26.13404 1220 ft 139 kts 78°
2026-05-04 18:18 44.58286 26.14746 1572 ft 148 kts 81°
2026-05-04 18:18 44.58411 26.16305 1752 ft 173 kts 84°
2026-05-04 18:19 44.58700 26.20086 2319 ft 217 kts 69°
2026-05-04 18:19 44.59661 26.21772 2660 ft 235 kts 28°
2026-05-04 18:19 44.61297 26.22223 3134 ft 252 kts 349°
2026-05-04 18:20 44.62891 26.21178 3926 ft 259 kts 323°
2026-05-04 18:20 44.64085 26.19261 4819 ft 266 kts 303°
2026-05-04 18:20 44.65021 26.17001 5673 ft 269 kts 303°
2026-05-04 18:20 44.65939 26.14697 6555 ft 271 kts 304°
2026-05-04 18:21 44.66854 26.12358 7356 ft 275 kts 304°
2026-05-04 18:21 44.67776 26.09989 8155 ft 278 kts 304°
2026-05-04 18:21 44.68713 26.07589 8953 ft 282 kts 304°
2026-05-04 18:21 44.69662 26.05159 9736 ft 286 kts 305°
2026-05-04 18:22 44.70627 26.02692 10385 ft 294 kts 305°
2026-05-04 18:22 44.71656 26.00083 10587 ft 317 kts 304°
2026-05-04 18:22 44.72762 25.97284 10827 ft 336 kts 304°
2026-05-04 18:22 44.73900 25.94375 11366 ft 343 kts 304°
2026-05-04 18:23 44.75053 25.91410 11987 ft 348 kts 304°
2026-05-04 18:23 44.75825 25.89420 12401 ft 351 kts 303°
2026-05-04 18:23 44.76999 25.86388 13002 ft 355 kts 303°
2026-05-04 18:23 44.78593 25.82267 13817 ft 362 kts 303°
2026-05-04 18:24 44.79397 25.80195 14173 ft 365 kts 303°
2026-05-04 18:24 44.80621 25.77045 14740 ft 369 kts 303°
2026-05-04 18:24 44.81854 25.73867 15306 ft 371 kts 303°
2026-05-04 18:24 44.83097 25.70661 15857 ft 375 kts 303°
2026-05-04 18:25 44.84352 25.67424 16418 ft 378 kts 303°
2026-05-04 18:25 44.85613 25.64160 16953 ft 381 kts 303°
2026-05-04 18:25 44.86884 25.60859 17509 ft 385 kts 302°
2026-05-04 18:25 44.88163 25.57527 18046 ft 388 kts 302°
2026-05-04 18:26 44.89454 25.54165 18535 ft 392 kts 302°
2026-05-04 18:26 44.90757 25.50776 19054 ft 394 kts 302°
2026-05-04 18:26 44.92067 25.47375 19620 ft 395 kts 301°
2026-05-04 18:26 44.93375 25.43971 20196 ft 395 kts 301°
2026-05-04 18:27 44.94684 25.40555 20763 ft 396 kts 301°
2026-05-04 18:27 44.98034 25.31785 22130 ft 397 kts 300°
2026-05-04 18:27 45.03326 25.17979 24022 ft 402 kts 304°
2026-05-04 18:27 45.09692 25.04807 25515 ft 410 kts 304°
2026-05-04 18:28 45.16100 24.91258 26881 ft 418 kts 303°
2026-05-04 18:28 45.22652 24.77431 28266 ft 426 kts 303°
2026-05-04 18:28 45.29294 24.63337 29703 ft 431 kts 302°
2026-05-04 18:28 45.35883 24.49259 31435 ft 426 kts 303°
2026-05-04 18:29 45.42417 24.35258 33020 ft 424 kts 305°
2026-05-04 18:29 45.48921 24.21246 34465 ft 424 kts 305°
2026-05-04 18:29 45.55387 24.07238 35697 ft 422 kts 305°
2026-05-04 18:29 45.61882 23.93086 36073 ft 433 kts 305°
2026-05-04 18:30 45.81665 23.49607 36019 ft 435 kts 304°
2026-05-04 18:30 45.88287 23.34898 36175 ft 429 kts 304°
2026-05-04 18:31 45.94798 23.20356 36104 ft 436 kts 304°
2026-05-04 18:31 45.98907 23.11150 36094 ft 435 kts 304°
2026-05-04 18:32 46.02162 23.03821 36094 ft 435 kts 304°
2026-05-04 18:32 46.05413 22.96491 36099 ft 435 kts 304°
2026-05-04 18:33 46.08662 22.89143 36107 ft 435 kts 304°
2026-05-04 18:33 46.11904 22.81789 36107 ft 435 kts 304°
2026-05-04 18:34 46.15147 22.74420 36104 ft 435 kts 304°
2026-05-04 18:34 46.18387 22.67038 36106 ft 435 kts 304°
2026-05-04 18:35 46.21623 22.59650 36115 ft 435 kts 304°
2026-05-04 18:35 46.24853 22.52254 36114 ft 435 kts 304°
2026-05-04 18:36 46.28078 22.44842 36110 ft 435 kts 304°
2026-05-04 18:36 46.31293 22.37436 36114 ft 435 kts 304°
2026-05-04 18:37 46.34504 22.30020 36109 ft 435 kts 304°
2026-05-04 18:37 46.37709 22.22594 36110 ft 435 kts 304°
2026-05-04 18:38 46.40909 22.15164 36098 ft 434 kts 304°
2026-05-04 18:38 46.44107 22.07730 36105 ft 434 kts 304°
2026-05-04 18:39 46.47293 22.00300 36103 ft 434 kts 304°
2026-05-04 18:39 46.50474 21.92860 36101 ft 434 kts 304°
2026-05-04 18:40 46.53649 21.85416 36090 ft 434 kts 304°
2026-05-04 18:40 46.56810 21.77961 36095 ft 433 kts 304°
2026-05-04 18:41 46.59962 21.70491 36095 ft 433 kts 304°
2026-05-04 18:41 46.63118 21.63026 36096 ft 433 kts 303°
2026-05-04 18:42 46.66111 21.55406 36096 ft 434 kts 301°
2026-05-04 18:42 46.68969 21.47661 36087 ft 434 kts 301°
2026-05-04 18:43 46.71835 21.39922 36087 ft 434 kts 301°
2026-05-04 18:43 46.74737 21.32209 36089 ft 434 kts 301°
2026-05-04 18:44 46.77643 21.24505 36090 ft 434 kts 301°
2026-05-04 18:44 46.80544 21.16782 36083 ft 434 kts 301°
2026-05-04 18:45 46.83429 21.09048 36086 ft 434 kts 301°
2026-05-04 18:45 46.86309 21.01310 36086 ft 433 kts 301°
2026-05-04 18:46 46.89184 20.93563 36086 ft 433 kts 301°
2026-05-04 18:46 46.92053 20.85808 36083 ft 434 kts 300°
2026-05-04 18:47 46.94914 20.78048 36085 ft 434 kts 300°
2026-05-04 18:47 46.97776 20.70284 36085 ft 434 kts 300°
2026-05-04 18:48 47.00630 20.62499 36085 ft 434 kts 300°
2026-05-04 18:48 47.03482 20.54702 36086 ft 434 kts 300°
2026-05-04 18:49 47.06327 20.46903 36086 ft 434 kts 300°
2026-05-04 18:49 47.09167 20.39094 36084 ft 434 kts 300°
2026-05-04 18:50 47.12010 20.31279 36075 ft 434 kts 300°
2026-05-04 18:50 47.14847 20.23455 36075 ft 434 kts 300°
2026-05-04 18:51 47.17685 20.15563 36074 ft 434 kts 299°
2026-05-04 18:51 47.20506 20.07715 36076 ft 434 kts 299°
2026-05-04 18:52 47.23323 19.99862 36075 ft 434 kts 299°
2026-05-04 18:52 47.26114 19.92040 36077 ft 434 kts 299°
2026-05-04 18:53 47.28936 19.84113 36073 ft 434 kts 299°
2026-05-04 18:53 47.31740 19.76225 36084 ft 434 kts 298°
2026-05-04 18:54 47.34535 19.68342 36081 ft 434 kts 298°